Time,TemperatureF,DewpointF,PressureIn,WindDirection,WindDirectionDegrees,WindSpeedMPH,WindSpeedGustMPH,Humidity,HourlyPrecipIn,Conditions,Clouds,dailyrainin,SoftwareType,DateUTC
2014-12-19 00:02:00,26.3,23.5,30.20,WNW,295,0.0,0.0,89,0.00,,---,0.00,VWS V14.00,2014-12-19 06:02:00,
2014-12-19 00:08:00,26.3,23.5,30.20,WNW,295,0.0,0.0,89,0.00,,---,0.00,VWS V14.00,2014-12-19 06:08:00,
2014-12-19 00:13:00,26.3,23.5,30.20,WNW,295,0.0,0.0,89,0.00,,---,0.00,VWS V14.00,2014-12-19 06:13:00,
2014-12-19 00:18:00,26.3,23.5,30.20,WNW,295,0.0,1.0,89,0.00,,---,0.00,VWS V14.00,2014-12-19 06:18:00,
2014-12-19 00:23:00,26.3,23.5,30.21,WNW,295,0.0,2.0,89,0.00,,---,0.00,VWS V14.00,2014-12-19 06:23:00,
2014-12-19 00:28:00,26.2,23.1,30.21,WNW,295,0.0,1.0,88,0.00,,---,0.00,VWS V14.00,2014-12-19 06:28:00,
2014-12-19 00:33:00,26.2,23.1,30.21,WNW,295,0.0,0.0,88,0.00,,---,0.00,VWS V14.00,2014-12-19 06:33:00,
2014-12-19 00:38:00,26.2,23.4,30.20,WNW,295,0.0,1.0,89,0.00,,---,0.00,VWS V14.00,2014-12-19 06:38:00,
2014-12-19 00:43:00,26.2,23.1,30.21,WNW,295,0.0,3.0,88,0.00,,---,0.00,VWS V14.00,2014-12-19 06:43:00,
2014-12-19 00:48:00,26.2,23.1,30.21,WNW,295,0.0,0.0,88,0.00,,---,0.00,VWS V14.00,2014-12-19 06:48:00,
2014-12-19 00:53:00,26.2,23.1,30.21,WNW,295,0.0,1.0,88,0.00,,---,0.00,VWS V14.00,2014-12-19 06:53:00,
2014-12-19 00:58:00,26.2,23.1,30.21,WNW,295,0.0,0.0,88,0.00,,---,0.00,VWS V14.00,2014-12-19 06:58:00,
2014-12-19 01:03:00,26.2,23.1,30.21,WNW,295,0.0,0.0,88,0.00,,---,0.00,VWS V14.00,2014-12-19 07:03:00,
2014-12-19 01:08:00,26.2,23.1,30.21,WNW,295,0.0,0.0,88,0.00,,---,0.00,VWS V14.00,2014-12-19 07:08:00,
2014-12-19 01:13:00,26.2,23.1,30.21,WNW,295,0.0,0.0,88,0.00,,---,0.00,VWS V14.00,2014-12-19 07:13:00,
2014-12-19 01:18:00,26.2,23.1,30.20,WNW,295,0.0,0.0,88,0.00,,---,0.00,VWS V14.00,2014-12-19 07:18:00,
2014-12-19 01:23:00,26.2,23.1,30.21,WNW,295,0.0,0.0,88,0.00,,---,0.00,VWS V14.00,2014-12-19 07:23:00,
2014-12-19 01:28:00,26.2,23.1,30.20,WNW,295,0.0,0.0,88,0.00,,---,0.00,VWS V14.00,2014-12-19 07:28:00,
2014-12-19 01:33:00,26.2,23.1,30.21,WNW,295,0.0,0.0,88,0.00,,---,0.00,VWS V14.00,2014-12-19 07:33:00,
2014-12-19 01:38:00,26.2,23.1,30.21,WNW,295,0.0,0.0,88,0.00,,---,0.00,VWS V14.00,2014-12-19 07:38:00,
2014-12-19 01:43:00,26.2,23.1,30.21,WNW,295,0.0,0.0,88,0.00,,---,0.00,VWS V14.00,2014-12-19 07:43:00,
2014-12-19 01:48:00,26.2,23.1,30.21,WNW,295,0.0,0.0,88,0.00,,---,0.00,VWS V14.00,2014-12-19 07:48:00,
2014-12-19 01:53:00,26.2,23.1,30.21,WNW,295,0.0,0.0,88,0.00,,---,0.00,VWS V14.00,2014-12-19 07:53:00,
2014-12-19 01:58:00,26.2,23.1,30.21,WNW,295,0.0,0.0,88,0.00,,---,0.00,VWS V14.00,2014-12-19 07:58:00,
2014-12-19 02:03:00,26.2,23.1,30.21,WNW,295,0.0,1.0,88,0.00,,---,0.00,VWS V14.00,2014-12-19 08:03:00,
2014-12-19 02:08:00,26.2,23.1,30.21,WNW,295,0.0,0.0,88,0.00,,---,0.00,VWS V14.00,2014-12-19 08:08:00,
2014-12-19 02:13:00,26.1,23.0,30.21,WNW,295,0.0,0.0,88,0.00,,---,0.00,VWS V14.00,2014-12-19 08:13:00,
2014-12-19 02:18:00,26.1,23.0,30.21,WNW,295,0.0,2.0,88,0.00,,---,0.00,VWS V14.00,2014-12-19 08:18:00,
2014-12-19 02:23:00,26.1,23.0,30.21,WNW,295,0.0,0.0,88,0.00,,---,0.00,VWS V14.00,2014-12-19 08:23:00,
2014-12-19 02:28:00,26.1,23.0,30.21,WNW,295,0.0,0.0,88,0.00,,---,0.00,VWS V14.00,2014-12-19 08:28:00,
2014-12-19 02:33:00,26.1,23.0,30.21,WNW,295,0.0,0.0,88,0.00,,---,0.00,VWS V14.00,2014-12-19 08:33:00,
2014-12-19 02:38:00,26.1,23.0,30.22,WNW,295,0.0,0.0,88,0.00,,---,0.00,VWS V14.00,2014-12-19 08:38:00,
2014-12-19 02:43:00,26.1,23.0,30.22,WNW,296,1.0,3.0,88,0.00,,---,0.00,VWS V14.00,2014-12-19 08:43:00,
2014-12-19 02:48:00,26.0,22.9,30.21,WNW,296,0.0,0.0,88,0.00,,---,0.00,VWS V14.00,2014-12-19 08:48:00,
2014-12-19 02:53:00,25.9,22.8,30.21,North,351,0.0,1.0,88,0.00,,---,0.00,VWS V14.00,2014-12-19 08:53:00,
2014-12-19 02:58:00,25.9,22.8,30.21,North,351,0.0,0.0,88,0.00,,---,0.00,VWS V14.00,2014-12-19 08:58:00,
2014-12-19 03:03:00,25.9,22.8,30.21,North,351,0.0,0.0,88,0.00,,---,0.00,VWS V14.00,2014-12-19 09:03:00,
2014-12-19 03:08:00,25.9,22.8,30.21,North,351,0.0,0.0,88,0.00,,---,0.00,VWS V14.00,2014-12-19 09:08:00,
2014-12-19 03:13:00,25.9,22.8,30.21,North,351,0.0,0.0,88,0.00,,---,0.00,VWS V14.00,2014-12-19 09:13:00,
2014-12-19 03:18:00,25.9,22.8,30.21,North,350,0.0,0.0,88,0.00,,---,0.00,VWS V14.00,2014-12-19 09:18:00,
2014-12-19 03:23:00,25.9,22.8,30.21,North,351,0.0,2.0,88,0.00,,---,0.00,VWS V14.00,2014-12-19 09:23:00,
2014-12-19 03:29:00,25.8,22.7,30.21,NW,306,2.0,3.0,88,0.00,,---,0.00,VWS V14.00,2014-12-19 09:29:00,
2014-12-19 03:34:00,25.7,22.6,30.21,NW,306,0.0,0.0,88,0.00,,---,0.00,VWS V14.00,2014-12-19 09:34:00,
2014-12-19 03:39:00,25.7,22.6,30.21,NW,306,0.0,1.0,88,0.00,,---,0.00,VWS V14.00,2014-12-19 09:39:00,
2014-12-19 03:44:00,25.7,22.6,30.21,NW,306,0.0,0.0,88,0.00,,---,0.00,VWS V14.00,2014-12-19 09:44:00,
2014-12-19 03:49:00,25.7,22.6,30.22,NW,306,0.0,0.0,88,0.00,,---,0.00,VWS V14.00,2014-12-19 09:49:00,
2014-12-19 03:54:00,25.6,22.5,30.21,NW,306,0.0,0.0,88,0.00,,---,0.00,VWS V14.00,2014-12-19 09:54:00,
2014-12-19 03:59:00,25.6,22.5,30.21,NW,306,0.0,0.0,88,0.00,,---,0.00,VWS V14.00,2014-12-19 09:59:00,
2014-12-19 04:04:00,25.6,22.5,30.21,NW,306,0.0,0.0,88,0.00,,---,0.00,VWS V14.00,2014-12-19 10:04:00,
2014-12-19 04:09:00,25.6,22.5,30.21,NW,306,0.0,0.0,88,0.00,,---,0.00,VWS V14.00,2014-12-19 10:09:00,
2014-12-19 04:14:00,25.5,22.5,30.21,NW,306,0.0,0.0,88,0.00,,---,0.00,VWS V14.00,2014-12-19 10:14:00,
2014-12-19 04:19:00,25.4,22.4,30.21,NW,306,0.0,0.0,88,0.00,,---,0.00,VWS V14.00,2014-12-19 10:19:00,
2014-12-19 04:24:00,25.4,22.4,30.21,NW,306,0.0,0.0,88,0.00,,---,0.00,VWS V14.00,2014-12-19 10:24:00,
2014-12-19 04:29:00,25.4,22.4,30.21,NW,306,0.0,0.0,88,0.00,,---,0.00,VWS V14.00,2014-12-19 10:29:00,
2014-12-19 04:34:00,25.4,22.4,30.21,NW,306,0.0,0.0,88,0.00,,---,0.00,VWS V14.00,2014-12-19 10:34:00,
2014-12-19 04:39:00,25.4,22.4,30.21,NW,306,0.0,0.0,88,0.00,,---,0.00,VWS V14.00,2014-12-19 10:39:00,
2014-12-19 04:44:00,25.4,22.4,30.21,NW,306,0.0,1.0,88,0.00,,---,0.00,VWS V14.00,2014-12-19 10:44:00,
2014-12-19 04:49:00,25.4,22.4,30.21,NW,306,0.0,0.0,88,0.00,,---,0.00,VWS V14.00,2014-12-19 10:49:00,
2014-12-19 04:54:00,25.3,22.2,30.22,NW,306,0.0,0.0,88,0.00,,---,0.00,VWS V14.00,2014-12-19 10:54:00,
2014-12-19 04:59:00,25.3,22.2,30.21,NW,306,0.0,0.0,88,0.00,,---,0.00,VWS V14.00,2014-12-19 10:59:00,
2014-12-19 05:04:00,25.2,22.1,30.21,NW,306,0.0,0.0,88,0.00,,---,0.00,VWS V14.00,2014-12-19 11:04:00,
2014-12-19 05:09:00,25.2,22.1,30.21,NW,306,0.0,0.0,88,0.00,,---,0.00,VWS V14.00,2014-12-19 11:09:00,
2014-12-19 05:14:00,25.2,22.1,30.21,NW,306,0.0,1.0,88,0.00,,---,0.00,VWS V14.00,2014-12-19 11:14:00,
2014-12-19 05:19:00,25.2,22.1,30.21,NW,306,0.0,0.0,88,0.00,,---,0.00,VWS V14.00,2014-12-19 11:19:00,
2014-12-19 05:24:00,25.2,22.1,30.22,NW,306,0.0,0.0,88,0.00,,---,0.00,VWS V14.00,2014-12-19 11:24:00,
2014-12-19 05:29:00,25.1,22.0,30.22,NW,306,0.0,0.0,88,0.00,,---,0.00,VWS V14.00,2014-12-19 11:29:00,
2014-12-19 05:34:00,25.1,22.0,30.22,NW,306,1.0,1.0,88,0.00,,---,0.00,VWS V14.00,2014-12-19 11:34:00,
2014-12-19 05:39:00,25.1,22.0,30.22,NW,306,0.0,2.0,88,0.00,,---,0.00,VWS V14.00,2014-12-19 11:39:00,
2014-12-19 05:44:00,25.0,22.0,30.22,NW,306,0.0,1.0,88,0.00,,---,0.00,VWS V14.00,2014-12-19 11:44:00,
2014-12-19 05:49:00,25.0,22.0,30.22,NW,306,0.0,0.0,88,0.00,,---,0.00,VWS V14.00,2014-12-19 11:49:00,
2014-12-19 05:54:00,25.0,22.0,30.22,NW,306,0.0,0.0,88,0.00,,---,0.00,VWS V14.00,2014-12-19 11:54:00,
2014-12-19 05:59:00,24.9,21.9,30.22,NW,306,0.0,3.0,88,0.00,,---,0.00,VWS V14.00,2014-12-19 11:59:00,
2014-12-19 06:04:00,24.9,21.9,30.22,NW,306,1.0,2.0,88,0.00,,---,0.00,VWS V14.00,2014-12-19 12:04:00,
2014-12-19 06:09:00,24.9,22.1,30.22,NW,306,0.0,0.0,89,0.00,,---,0.00,VWS V14.00,2014-12-19 12:09:00,
2014-12-19 06:14:00,24.9,22.1,30.22,NW,306,0.0,2.0,89,0.00,,---,0.00,VWS V14.00,2014-12-19 12:14:00,
2014-12-19 06:19:00,24.9,21.9,30.22,NW,306,0.0,0.0,88,0.00,,---,0.00,VWS V14.00,2014-12-19 12:19:00,
2014-12-19 06:24:00,24.9,21.9,30.22,NNW,344,3.0,3.0,88,0.00,,---,0.00,VWS V14.00,2014-12-19 12:24:00,
2014-12-19 06:30:00,24.8,21.8,30.22,NNW,344,0.0,0.0,88,0.00,,---,0.00,VWS V14.00,2014-12-19 12:30:00,
2014-12-19 06:35:00,24.8,21.8,30.22,NNW,344,0.0,0.0,88,0.00,,---,0.00,VWS V14.00,2014-12-19 12:35:00,
2014-12-19 06:40:00,24.8,22.0,30.23,NNW,344,0.0,0.0,89,0.00,,---,0.00,VWS V14.00,2014-12-19 12:40:00,
2014-12-19 06:45:00,24.7,21.9,30.23,NNW,344,2.0,4.0,89,0.00,,---,0.00,VWS V14.00,2014-12-19 12:45:00,
2014-12-19 06:50:00,24.7,21.9,30.23,NNW,344,0.0,1.0,89,0.00,,---,0.00,VWS V14.00,2014-12-19 12:50:00,
2014-12-19 06:55:00,24.7,21.9,30.23,NNW,344,0.0,2.0,89,0.00,,---,0.00,VWS V14.00,2014-12-19 12:55:00,
2014-12-19 07:00:00,24.7,21.9,30.23,NNW,344,1.0,2.0,89,0.00,,---,0.00,VWS V14.00,2014-12-19 13:00:00,
2014-12-19 07:05:00,24.7,21.9,30.23,NNW,344,0.0,1.0,89,0.00,,---,0.00,VWS V14.00,2014-12-19 13:05:00,
2014-12-19 07:10:00,24.7,21.9,30.23,NNW,344,0.0,0.0,89,0.00,,---,0.00,VWS V14.00,2014-12-19 13:10:00,
2014-12-19 07:15:00,24.7,21.9,30.23,NNW,344,0.0,4.0,89,0.00,,---,0.00,VWS V14.00,2014-12-19 13:15:00,
2014-12-19 07:20:00,24.6,21.8,30.23,NW,304,1.0,3.0,89,0.00,,---,0.00,VWS V14.00,2014-12-19 13:20:00,
2014-12-19 07:25:00,24.6,21.8,30.23,NW,304,0.0,0.0,89,0.00,,---,0.00,VWS V14.00,2014-12-19 13:25:00,
2014-12-19 07:30:00,24.6,21.8,30.23,NW,304,0.0,0.0,89,0.00,,---,0.00,VWS V14.00,2014-12-19 13:30:00,
2014-12-19 07:35:00,24.5,21.7,30.23,NW,304,0.0,0.0,89,0.00,,---,0.00,VWS V14.00,2014-12-19 13:35:00,
2014-12-19 07:40:00,24.5,21.7,30.23,WNW,290,0.0,0.0,89,0.00,,---,0.00,VWS V14.00,2014-12-19 13:40:00,
2014-12-19 07:45:00,24.6,21.8,30.23,WNW,290,0.0,2.0,89,0.00,,---,0.00,VWS V14.00,2014-12-19 13:45:00,
2014-12-19 07:50:00,24.6,21.8,30.23,WNW,290,0.0,1.0,89,0.00,,---,0.00,VWS V14.00,2014-12-19 13:50:00,
2014-12-19 07:55:00,24.6,21.8,30.23,WNW,290,0.0,0.0,89,0.00,,---,0.00,VWS V14.00,2014-12-19 13:55:00,
2014-12-19 08:00:00,24.6,21.8,30.23,NW,320,1.0,4.0,89,0.00,,---,0.00,VWS V14.00,2014-12-19 14:00:00,
2014-12-19 08:05:00,24.5,21.7,30.23,NW,320,2.0,2.0,89,0.00,,---,0.00,VWS V14.00,2014-12-19 14:05:00,
2014-12-19 08:10:00,24.5,21.7,30.24,NW,320,0.0,2.0,89,0.00,,---,0.00,VWS V14.00,2014-12-19 14:10:00,
2014-12-19 08:15:00,24.6,21.8,30.24,NW,319,0.0,0.0,89,0.00,,---,0.00,VWS V14.00,2014-12-19 14:15:00,
2014-12-19 08:20:00,24.6,21.8,30.24,NW,320,1.0,3.0,89,0.00,,---,0.00,VWS V14.00,2014-12-19 14:20:00,
2014-12-19 08:25:00,24.5,21.7,30.24,NW,325,0.0,4.0,89,0.00,,---,0.00,VWS V14.00,2014-12-19 14:25:00,
2014-12-19 08:30:00,24.4,21.6,30.24,NW,325,0.0,2.0,89,0.00,,---,0.00,VWS V14.00,2014-12-19 14:30:00,
2014-12-19 08:35:00,24.4,21.6,30.24,NW,325,0.0,0.0,89,0.00,,---,0.00,VWS V14.00,2014-12-19 14:35:00,
2014-12-19 08:40:00,24.5,21.7,30.24,NW,325,0.0,0.0,89,0.00,,---,0.00,VWS V14.00,2014-12-19 14:40:00,
2014-12-19 08:45:00,24.5,21.7,30.24,NW,325,0.0,0.0,89,0.00,,---,0.00,VWS V14.00,2014-12-19 14:45:00,
2014-12-19 08:50:00,24.6,21.8,30.24,NW,325,0.0,0.0,89,0.00,,---,0.00,VWS V14.00,2014-12-19 14:50:00,
2014-12-19 08:55:00,24.6,21.8,30.24,NW,325,0.0,0.0,89,0.00,,---,0.00,VWS V14.00,2014-12-19 14:55:00,
2014-12-19 09:00:00,24.7,21.9,30.24,NW,325,0.0,0.0,89,0.00,,---,0.00,VWS V14.00,2014-12-19 15:00:00,
2014-12-19 09:05:00,24.7,21.9,30.24,NW,325,0.0,0.0,89,0.00,,---,0.00,VWS V14.00,2014-12-19 15:05:00,
2014-12-19 09:10:00,24.7,21.9,30.24,NW,325,0.0,1.0,89,0.00,,---,0.00,VWS V14.00,2014-12-19 15:10:00,
2014-12-19 09:15:00,24.7,21.9,30.24,NW,325,0.0,0.0,89,0.00,,---,0.00,VWS V14.00,2014-12-19 15:15:00,
2014-12-19 09:20:00,24.7,21.9,30.24,NW,325,0.0,0.0,89,0.00,,---,0.00,VWS V14.00,2014-12-19 15:20:00,
2014-12-19 09:25:00,24.7,21.9,30.24,NW,325,0.0,0.0,89,0.00,,---,0.00,VWS V14.00,2014-12-19 15:25:00,
2014-12-19 09:30:00,24.6,21.8,30.24,NW,325,3.0,3.0,89,0.00,,---,0.00,VWS V14.00,2014-12-19 15:30:00,
2014-12-19 09:35:00,24.7,21.9,30.24,NW,326,0.0,3.0,89,0.00,,---,0.00,VWS V14.00,2014-12-19 15:35:00,
2014-12-19 09:41:00,24.7,21.9,30.24,NW,326,0.0,2.0,89,0.00,,---,0.00,VWS V14.00,2014-12-19 15:41:00,
2014-12-19 09:46:00,24.8,22.0,30.24,NW,326,0.0,0.0,89,0.00,,---,0.00,VWS V14.00,2014-12-19 15:46:00,
2014-12-19 09:51:00,24.7,21.7,30.24,NW,326,0.0,0.0,88,0.00,,---,0.00,VWS V14.00,2014-12-19 15:51:00,
2014-12-19 09:56:00,24.7,21.7,30.24,NW,326,0.0,0.0,88,0.00,,---,0.00,VWS V14.00,2014-12-19 15:56:00,
2014-12-19 10:01:00,24.8,21.8,30.24,NW,326,0.0,0.0,88,0.00,,---,0.00,VWS V14.00,2014-12-19 16:01:00,
2014-12-19 10:06:00,24.8,21.8,30.24,NW,326,1.0,1.0,88,0.00,,---,0.00,VWS V14.00,2014-12-19 16:06:00,
2014-12-19 10:11:00,24.8,21.8,30.24,NW,326,0.0,0.0,88,0.00,,---,0.00,VWS V14.00,2014-12-19 16:11:00,
2014-12-19 10:16:00,24.8,22.0,30.24,NW,326,0.0,0.0,89,0.00,,---,0.00,VWS V14.00,2014-12-19 16:16:00,
2014-12-19 10:21:00,24.9,22.1,30.24,NW,326,0.0,0.0,89,0.00,,---,0.00,VWS V14.00,2014-12-19 16:21:00,
2014-12-19 10:26:00,24.9,22.1,30.24,NW,326,0.0,0.0,89,0.00,,---,0.00,VWS V14.00,2014-12-19 16:26:00,
2014-12-19 10:31:00,25.0,22.2,30.24,NW,326,0.0,0.0,89,0.00,,---,0.00,VWS V14.00,2014-12-19 16:31:00,
2014-12-19 10:36:00,25.2,22.4,30.24,NW,326,0.0,0.0,89,0.00,,---,0.00,VWS V14.00,2014-12-19 16:36:00,
2014-12-19 10:41:00,25.2,22.4,30.24,NW,326,2.0,3.0,89,0.00,,---,0.00,VWS V14.00,2014-12-19 16:41:00,
2014-12-19 10:46:00,25.1,22.0,30.24,SE,131,0.0,3.0,88,0.00,,---,0.00,VWS V14.00,2014-12-19 16:46:00,
2014-12-19 10:51:00,25.1,22.0,30.24,SE,130,0.0,3.0,88,0.00,,---,0.00,VWS V14.00,2014-12-19 16:51:00,
2014-12-19 10:56:00,25.2,22.4,30.24,SE,130,0.0,0.0,89,0.00,,---,0.00,VWS V14.00,2014-12-19 16:56:00,
2014-12-19 11:01:00,25.2,22.1,30.24,SE,130,0.0,1.0,88,0.00,,---,0.00,VWS V14.00,2014-12-19 17:01:00,
2014-12-19 11:06:00,25.3,22.2,30.24,SE,130,1.0,2.0,88,0.00,,---,0.00,VWS V14.00,2014-12-19 17:06:00,
2014-12-19 11:11:00,25.3,22.2,30.24,SE,129,0.0,2.0,88,0.00,,---,0.00,VWS V14.00,2014-12-19 17:11:00,
2014-12-19 11:16:00,25.2,22.1,30.24,SE,129,0.0,0.0,88,0.00,,---,0.00,VWS V14.00,2014-12-19 17:16:00,
2014-12-19 11:21:00,25.4,22.4,30.24,SE,130,0.0,2.0,88,0.00,,---,0.00,VWS V14.00,2014-12-19 17:21:00,
2014-12-19 11:26:00,25.5,22.5,30.23,South,170,0.0,4.0,88,0.00,,---,0.00,VWS V14.00,2014-12-19 17:26:00,
2014-12-19 11:31:00,25.5,22.5,30.24,SSE,155,2.0,4.0,88,0.00,,---,0.00,VWS V14.00,2014-12-19 17:31:00,
2014-12-19 11:36:00,25.6,22.5,30.23,SSE,159,0.0,4.0,88,0.00,,---,0.00,VWS V14.00,2014-12-19 17:36:00,
2014-12-19 11:41:00,25.4,22.4,30.24,SSE,163,0.0,1.0,88,0.00,,---,0.00,VWS V14.00,2014-12-19 17:41:00,
2014-12-19 11:46:00,25.5,22.5,30.24,SSE,163,0.0,0.0,88,0.00,,---,0.00,VWS V14.00,2014-12-19 17:46:00,
2014-12-19 11:51:00,25.6,22.5,30.24,SSE,156,0.0,1.0,88,0.00,,---,0.00,VWS V14.00,2014-12-19 17:51:00,
2014-12-19 11:56:00,25.6,22.5,30.23,SSE,156,0.0,4.0,88,0.00,,---,0.00,VWS V14.00,2014-12-19 17:56:00,
2014-12-19 12:01:00,25.7,22.6,30.23,SSE,156,0.0,2.0,88,0.00,,---,0.00,VWS V14.00,2014-12-19 18:01:00,
2014-12-19 12:06:00,25.7,22.4,30.23,SSE,156,0.0,0.0,87,0.00,,---,0.00,VWS V14.00,2014-12-19 18:06:00,
2014-12-19 12:11:00,25.8,22.7,30.23,SSE,156,0.0,3.0,88,0.00,,---,0.00,VWS V14.00,2014-12-19 18:11:00,
2014-12-19 12:16:00,25.9,22.8,30.22,SSW,192,1.0,4.0,88,0.00,,---,0.00,VWS V14.00,2014-12-19 18:16:00,
2014-12-19 12:21:00,26.0,22.9,30.22,South,172,4.0,5.0,88,0.00,,---,0.00,VWS V14.00,2014-12-19 18:21:00,
2014-12-19 12:26:00,25.9,22.6,30.22,SE,142,0.0,7.0,87,0.00,,---,0.00,VWS V14.00,2014-12-19 18:26:00,
2014-12-19 12:31:00,25.7,22.6,30.22,SSW,204,0.0,4.0,88,0.00,,---,0.00,VWS V14.00,2014-12-19 18:31:00,
2014-12-19 12:36:00,25.8,22.7,30.22,SW,226,1.0,3.0,88,0.00,,---,0.00,VWS V14.00,2014-12-19 18:36:00,
2014-12-19 12:41:00,25.9,22.8,30.22,SW,226,0.0,1.0,88,0.00,,---,0.00,VWS V14.00,2014-12-19 18:41:00,
2014-12-19 12:46:00,26.0,22.9,30.21,SW,226,0.0,0.0,88,0.00,,---,0.00,VWS V14.00,2014-12-19 18:46:00,
2014-12-19 12:51:00,26.0,22.7,30.21,SW,226,0.0,0.0,87,0.00,,---,0.00,VWS V14.00,2014-12-19 18:51:00,
2014-12-19 12:56:00,26.1,22.8,30.20,SW,226,0.0,0.0,87,0.00,,---,0.00,VWS V14.00,2014-12-19 18:56:00,
2014-12-19 13:01:00,26.1,22.8,30.20,SW,226,0.0,0.0,87,0.00,,---,0.00,VWS V14.00,2014-12-19 19:01:00,
2014-12-19 13:06:00,26.2,22.9,30.20,SW,226,0.0,1.0,87,0.00,,---,0.00,VWS V14.00,2014-12-19 19:06:00,
2014-12-19 13:11:00,26.2,22.9,30.20,SW,226,0.0,1.0,87,0.00,,---,0.00,VWS V14.00,2014-12-19 19:11:00,
2014-12-19 13:17:00,26.2,22.9,30.20,SE,140,0.0,2.0,87,0.00,,---,0.00,VWS V14.00,2014-12-19 19:17:00,
2014-12-19 13:22:00,26.1,22.8,30.20,SE,140,0.0,0.0,87,0.00,,---,0.00,VWS V14.00,2014-12-19 19:22:00,
2014-12-19 13:27:00,26.1,22.8,30.20,SE,140,0.0,0.0,87,0.00,,---,0.00,VWS V14.00,2014-12-19 19:27:00,
2014-12-19 13:32:00,26.2,22.9,30.20,SE,140,0.0,2.0,87,0.00,,---,0.00,VWS V14.00,2014-12-19 19:32:00,
2014-12-19 13:37:00,26.2,22.9,30.19,SSE,155,0.0,4.0,87,0.00,,---,0.00,VWS V14.00,2014-12-19 19:37:00,
2014-12-19 13:42:00,26.2,22.9,30.19,SSE,155,2.0,3.0,87,0.00,,---,0.00,VWS V14.00,2014-12-19 19:42:00,
2014-12-19 13:47:00,26.1,22.8,30.19,SSE,155,0.0,2.0,87,0.00,,---,0.00,VWS V14.00,2014-12-19 19:47:00,
2014-12-19 13:52:00,26.2,22.9,30.19,SSE,155,0.0,0.0,87,0.00,,---,0.00,VWS V14.00,2014-12-19 19:52:00,
2014-12-19 13:57:00,26.2,22.9,30.19,SSE,155,0.0,3.0,87,0.00,,---,0.00,VWS V14.00,2014-12-19 19:57:00,
2014-12-19 14:02:00,26.1,22.8,30.19,SSE,155,0.0,1.0,87,0.00,,---,0.00,VWS V14.00,2014-12-19 20:02:00,
2014-12-19 14:07:00,26.2,22.9,30.19,SSE,155,0.0,0.0,87,0.00,,---,0.00,VWS V14.00,2014-12-19 20:07:00,
2014-12-19 14:12:00,26.3,23.0,30.19,SSE,155,0.0,0.0,87,0.00,,---,0.00,VWS V14.00,2014-12-19 20:12:00,
2014-12-19 14:17:00,26.5,23.4,30.19,SSE,155,0.0,0.0,88,0.00,,---,0.00,VWS V14.00,2014-12-19 20:17:00,
2014-12-19 14:22:00,26.5,23.2,30.19,SSE,155,1.0,1.0,87,0.00,,---,0.00,VWS V14.00,2014-12-19 20:22:00,
2014-12-19 14:27:00,26.5,23.2,30.19,SSE,155,0.0,0.0,87,0.00,,---,0.00,VWS V14.00,2014-12-19 20:27:00,
2014-12-19 14:32:00,26.4,23.1,30.19,SSE,155,0.0,2.0,87,0.00,,---,0.00,VWS V14.00,2014-12-19 20:32:00,
2014-12-19 14:37:00,26.4,23.1,30.19,SSE,155,0.0,2.0,87,0.00,,---,0.00,VWS V14.00,2014-12-19 20:37:00,
2014-12-19 14:42:00,26.4,23.1,30.19,SSE,155,0.0,0.0,87,0.00,,---,0.00,VWS V14.00,2014-12-19 20:42:00,
2014-12-19 14:47:00,26.4,23.1,30.19,SSE,155,0.0,0.0,87,0.00,,---,0.00,VWS V14.00,2014-12-19 20:47:00,
2014-12-19 14:52:00,26.4,23.1,30.20,SSE,155,0.0,0.0,87,0.00,,---,0.00,VWS V14.00,2014-12-19 20:52:00,
2014-12-19 14:57:00,26.4,23.1,30.20,SSE,155,0.0,0.0,87,0.00,,---,0.00,VWS V14.00,2014-12-19 20:57:00,
2014-12-19 15:02:00,26.4,23.1,30.20,SSE,155,0.0,0.0,87,0.00,,---,0.00,VWS V14.00,2014-12-19 21:02:00,
2014-12-19 15:07:00,26.4,23.1,30.20,SSE,155,0.0,0.0,87,0.00,,---,0.00,VWS V14.00,2014-12-19 21:07:00,
2014-12-19 15:12:00,26.4,23.1,30.20,SSE,155,0.0,0.0,87,0.00,,---,0.00,VWS V14.00,2014-12-19 21:12:00,
2014-12-19 15:17:00,26.3,23.0,30.20,SSE,155,0.0,0.0,87,0.00,,---,0.00,VWS V14.00,2014-12-19 21:17:00,
2014-12-19 15:22:00,26.4,23.1,30.20,SSE,155,0.0,0.0,87,0.00,,---,0.00,VWS V14.00,2014-12-19 21:22:00,
2014-12-19 15:27:00,26.4,23.1,30.20,SSE,155,0.0,0.0,87,0.00,,---,0.00,VWS V14.00,2014-12-19 21:27:00,
2014-12-19 15:32:00,26.4,23.1,30.20,SSE,155,1.0,1.0,87,0.00,,---,0.00,VWS V14.00,2014-12-19 21:32:00,
2014-12-19 15:37:00,26.4,23.1,30.21,SSE,155,0.0,0.0,87,0.00,,---,0.00,VWS V14.00,2014-12-19 21:37:00,
2014-12-19 15:42:00,26.4,23.1,30.21,SSE,155,0.0,0.0,87,0.00,,---,0.00,VWS V14.00,2014-12-19 21:42:00,
2014-12-19 15:47:00,26.5,23.2,30.22,SSE,155,0.0,0.0,87,0.00,,---,0.00,VWS V14.00,2014-12-19 21:47:00,
2014-12-19 15:52:00,26.5,22.9,30.22,SSE,155,0.0,0.0,86,0.00,,---,0.00,VWS V14.00,2014-12-19 21:52:00,
2014-12-19 15:58:00,26.5,22.9,30.22,SSE,155,0.0,0.0,86,0.00,,---,0.00,VWS V14.00,2014-12-19 21:58:00,
2014-12-19 16:03:00,26.6,23.0,30.22,SSE,155,0.0,0.0,86,0.00,,---,0.00,VWS V14.00,2014-12-19 22:03:00,
2014-12-19 16:08:00,26.6,23.0,30.22,SSE,155,0.0,0.0,86,0.00,,---,0.00,VWS V14.00,2014-12-19 22:08:00,
2014-12-19 16:13:00,26.6,23.0,30.22,SSE,155,0.0,0.0,86,0.00,,---,0.00,VWS V14.00,2014-12-19 22:13:00,
2014-12-19 16:18:00,26.6,23.0,30.23,SSE,155,0.0,0.0,86,0.00,,---,0.00,VWS V14.00,2014-12-19 22:18:00,
2014-12-19 16:23:00,26.6,23.0,30.23,SSE,155,0.0,0.0,86,0.00,,---,0.00,VWS V14.00,2014-12-19 22:23:00,
2014-12-19 16:28:00,26.7,23.1,30.23,SSE,155,0.0,0.0,86,0.00,,---,0.00,VWS V14.00,2014-12-19 22:28:00,
2014-12-19 16:33:00,26.7,23.1,30.23,SSE,155,0.0,0.0,86,0.00,,---,0.00,VWS V14.00,2014-12-19 22:33:00,
2014-12-19 16:38:00,26.8,23.2,30.23,SSE,155,0.0,0.0,86,0.00,,---,0.00,VWS V14.00,2014-12-19 22:38:00,
2014-12-19 16:43:00,26.8,23.2,30.23,SSE,155,0.0,0.0,86,0.00,,---,0.00,VWS V14.00,2014-12-19 22:43:00,
2014-12-19 16:48:00,26.8,23.2,30.23,SSE,155,0.0,0.0,86,0.00,,---,0.00,VWS V14.00,2014-12-19 22:48:00,
2014-12-19 16:53:00,26.8,23.2,30.23,SSE,155,0.0,0.0,86,0.00,,---,0.00,VWS V14.00,2014-12-19 22:53:00,
2014-12-19 16:58:00,26.8,23.2,30.23,SSE,155,0.0,0.0,86,0.00,,---,0.00,VWS V14.00,2014-12-19 22:58:00,
2014-12-19 17:03:00,26.8,23.2,30.24,SSE,155,0.0,0.0,86,0.00,,---,0.00,VWS V14.00,2014-12-19 23:03:00,
2014-12-19 17:08:00,26.8,23.2,30.23,SSE,155,0.0,0.0,86,0.00,,---,0.00,VWS V14.00,2014-12-19 23:08:00,
2014-12-19 17:13:00,26.8,23.2,30.23,SSE,155,0.0,0.0,86,0.00,,---,0.00,VWS V14.00,2014-12-19 23:13:00,
2014-12-19 17:18:00,26.8,23.2,30.23,SSE,155,0.0,0.0,86,0.00,,---,0.00,VWS V14.00,2014-12-19 23:18:00,
2014-12-19 17:23:00,26.8,23.2,30.23,SSE,155,0.0,1.0,86,0.00,,---,0.00,VWS V14.00,2014-12-19 23:23:00,
2014-12-19 17:28:00,26.8,23.2,30.23,SSE,155,0.0,0.0,86,0.00,,---,0.00,VWS V14.00,2014-12-19 23:28:00,
2014-12-19 17:33:00,26.8,23.2,30.23,SSE,155,0.0,0.0,86,0.00,,---,0.00,VWS V14.00,2014-12-19 23:33:00,
2014-12-19 17:38:00,26.8,23.2,30.23,SSE,155,0.0,1.0,86,0.00,,---,0.00,VWS V14.00,2014-12-19 23:38:00,
2014-12-19 17:43:00,26.8,23.2,30.23,SSE,155,0.0,0.0,86,0.00,,---,0.00,VWS V14.00,2014-12-19 23:43:00,
2014-12-19 17:48:00,26.8,23.2,30.23,SSE,155,0.0,0.0,86,0.00,,---,0.00,VWS V14.00,2014-12-19 23:48:00,
2014-12-19 17:53:00,26.8,23.2,30.23,SSE,155,0.0,0.0,86,0.00,,---,0.00,VWS V14.00,2014-12-19 23:53:00,
2014-12-19 17:58:00,26.8,23.2,30.22,SSE,155,0.0,1.0,86,0.00,,---,0.00,VWS V14.00,2014-12-19 23:58:00,
2014-12-19 18:03:00,26.8,23.2,30.22,SSE,155,0.0,0.0,86,0.00,,---,0.00,VWS V14.00,2014-12-20 00:03:00,
2014-12-19 18:08:00,26.8,23.2,30.22,SSE,155,0.0,1.0,86,0.00,,---,0.00,VWS V14.00,2014-12-20 00:08:00,
2014-12-19 18:13:00,26.8,23.5,30.21,SSE,155,0.0,1.0,87,0.00,,---,0.00,VWS V14.00,2014-12-20 00:13:00,
2014-12-19 18:18:00,26.8,23.5,30.21,SSE,155,0.0,0.0,87,0.00,,---,0.00,VWS V14.00,2014-12-20 00:18:00,
2014-12-19 18:23:00,26.8,23.5,30.21,SSE,155,0.0,2.0,87,0.00,,---,0.00,VWS V14.00,2014-12-20 00:23:00,
2014-12-19 18:28:00,26.7,23.1,30.21,SSE,155,0.0,1.0,86,0.00,,---,0.00,VWS V14.00,2014-12-20 00:28:00,
2014-12-19 18:33:00,26.7,23.4,30.21,SSE,155,0.0,0.0,87,0.00,,---,0.00,VWS V14.00,2014-12-20 00:33:00,
2014-12-19 18:38:00,26.6,23.3,30.20,SSE,155,0.0,2.0,87,0.00,,---,0.00,VWS V14.00,2014-12-20 00:38:00,
2014-12-19 18:43:00,26.5,23.2,30.20,SSE,155,0.0,0.0,87,0.00,,---,0.00,VWS V14.00,2014-12-20 00:43:00,
2014-12-19 18:48:00,26.4,23.1,30.21,SSE,155,0.0,0.0,87,0.00,,---,0.00,VWS V14.00,2014-12-20 00:48:00,
2014-12-19 18:53:00,26.3,23.0,30.20,SSE,155,0.0,0.0,87,0.00,,---,0.00,VWS V14.00,2014-12-20 00:53:00,
2014-12-19 18:58:00,26.2,22.9,30.20,SSE,155,0.0,0.0,87,0.00,,---,0.00,VWS V14.00,2014-12-20 00:58:00,
2014-12-19 19:03:00,26.1,22.8,30.20,SSE,155,0.0,0.0,87,0.00,,---,0.00,VWS V14.00,2014-12-20 01:03:00,
2014-12-19 19:08:00,26.0,22.7,30.20,SSE,155,0.0,0.0,87,0.00,,---,0.00,VWS V14.00,2014-12-20 01:08:00,
2014-12-19 19:13:00,26.0,22.9,30.19,SSE,155,0.0,0.0,88,0.00,,---,0.00,VWS V14.00,2014-12-20 01:13:00,
2014-12-19 19:18:00,25.9,22.8,30.20,SSE,155,0.0,1.0,88,0.00,,---,0.00,VWS V14.00,2014-12-20 01:18:00,
2014-12-19 19:23:00,25.9,22.8,30.19,SSE,155,0.0,0.0,88,0.00,,---,0.00,VWS V14.00,2014-12-20 01:23:00,
2014-12-19 19:28:00,25.8,22.7,30.19,SSE,155,0.0,0.0,88,0.00,,---,0.00,VWS V14.00,2014-12-20 01:28:00,
2014-12-19 19:33:00,25.8,22.7,30.19,SSE,155,0.0,0.0,88,0.00,,---,0.00,VWS V14.00,2014-12-20 01:33:00,
2014-12-19 19:38:00,25.7,22.6,30.19,SSE,155,0.0,0.0,88,0.00,,---,0.00,VWS V14.00,2014-12-20 01:38:00,
2014-12-19 19:43:00,25.7,22.9,30.19,SSE,155,0.0,0.0,89,0.00,,---,0.00,VWS V14.00,2014-12-20 01:43:00,
2014-12-19 19:48:00,25.7,22.9,30.19,SSE,155,0.0,0.0,89,0.00,,---,0.00,VWS V14.00,2014-12-20 01:48:00,
2014-12-19 19:53:00,25.7,22.9,30.19,SSE,155,0.0,0.0,89,0.00,,---,0.00,VWS V14.00,2014-12-20 01:53:00,
2014-12-19 19:58:00,25.6,22.8,30.18,SSE,155,0.0,0.0,89,0.00,,---,0.00,VWS V14.00,2014-12-20 01:58:00,
2014-12-19 20:03:00,25.6,22.8,30.18,SSE,155,0.0,0.0,89,0.00,,---,0.00,VWS V14.00,2014-12-20 02:03:00,
2014-12-19 20:08:00,25.6,22.8,30.18,SSE,155,0.0,0.0,89,0.00,,---,0.00,VWS V14.00,2014-12-20 02:08:00,
2014-12-19 20:13:00,25.6,22.8,30.18,SSE,155,0.0,0.0,89,0.00,,---,0.00,VWS V14.00,2014-12-20 02:13:00,
2014-12-19 20:18:00,25.6,22.8,30.17,SSE,155,0.0,0.0,89,0.00,,---,0.00,VWS V14.00,2014-12-20 02:18:00,
2014-12-19 20:23:00,25.5,22.7,30.17,SSE,155,0.0,0.0,89,0.00,,---,0.00,VWS V14.00,2014-12-20 02:23:00,
2014-12-19 20:28:00,25.4,22.9,30.17,SSE,155,0.0,0.0,90,0.00,,---,0.00,VWS V14.00,2014-12-20 02:28:00,
2014-12-19 20:33:00,25.4,22.9,30.17,SSE,155,0.0,0.0,90,0.00,,---,0.00,VWS V14.00,2014-12-20 02:33:00,
2014-12-19 20:38:00,25.2,22.7,30.17,SSE,155,0.0,0.0,90,0.00,,---,0.00,VWS V14.00,2014-12-20 02:38:00,
2014-12-19 20:43:00,25.0,22.2,30.17,SSE,155,0.0,0.0,89,0.00,,---,0.00,VWS V14.00,2014-12-20 02:43:00,
2014-12-19 20:48:00,24.8,22.3,30.17,SSE,155,0.0,0.0,90,0.00,,---,0.00,VWS V14.00,2014-12-20 02:48:00,
2014-12-19 20:53:00,24.7,22.2,30.17,SSE,155,0.0,0.0,90,0.00,,---,0.00,VWS V14.00,2014-12-20 02:53:00,
2014-12-19 20:59:00,24.4,21.9,30.17,SSE,155,0.0,0.0,90,0.00,,---,0.00,VWS V14.00,2014-12-20 02:59:00,
2014-12-19 21:04:00,24.4,21.9,30.18,SSE,155,0.0,0.0,90,0.00,,---,0.00,VWS V14.00,2014-12-20 03:04:00,
2014-12-19 21:09:00,24.4,21.9,30.18,SSE,155,0.0,0.0,90,0.00,,---,0.00,VWS V14.00,2014-12-20 03:09:00,
2014-12-19 21:14:00,24.4,21.9,30.18,SSE,155,0.0,0.0,90,0.00,,---,0.00,VWS V14.00,2014-12-20 03:14:00,
2014-12-19 21:19:00,24.3,22.1,30.18,SSE,155,0.0,0.0,91,0.00,,---,0.00,VWS V14.00,2014-12-20 03:19:00,
2014-12-19 21:24:00,24.5,22.2,30.18,SSE,155,0.0,0.0,91,0.00,,---,0.00,VWS V14.00,2014-12-20 03:24:00,
2014-12-19 21:29:00,24.5,22.2,30.18,SSE,155,0.0,0.0,91,0.00,,---,0.00,VWS V14.00,2014-12-20 03:29:00,
2014-12-19 21:34:00,24.5,22.2,30.18,SSE,155,0.0,0.0,91,0.00,,---,0.00,VWS V14.00,2014-12-20 03:34:00,
2014-12-19 21:39:00,24.3,22.1,30.19,SSE,155,0.0,0.0,91,0.00,,---,0.00,VWS V14.00,2014-12-20 03:39:00,
2014-12-19 21:44:00,24.2,22.0,30.19,SSE,155,0.0,0.0,91,0.00,,---,0.00,VWS V14.00,2014-12-20 03:44:00,
2014-12-19 21:49:00,24.1,21.9,30.19,SSE,155,0.0,1.0,91,0.00,,---,0.00,VWS V14.00,2014-12-20 03:49:00,
2014-12-19 21:54:00,24.0,21.8,30.19,SSE,155,0.0,0.0,91,0.00,,---,0.00,VWS V14.00,2014-12-20 03:54:00,
2014-12-19 21:59:00,24.1,21.9,30.19,SSE,155,0.0,0.0,91,0.00,,---,0.00,VWS V14.00,2014-12-20 03:59:00,
2014-12-19 22:04:00,24.1,22.1,30.19,SSE,155,0.0,0.0,92,0.00,,---,0.00,VWS V14.00,2014-12-20 04:04:00,
2014-12-19 22:09:00,24.0,22.0,30.19,SSE,155,0.0,0.0,92,0.00,,---,0.00,VWS V14.00,2014-12-20 04:09:00,
2014-12-19 22:14:00,24.0,22.0,30.19,SSE,155,0.0,0.0,92,0.00,,---,0.00,VWS V14.00,2014-12-20 04:14:00,
2014-12-19 22:19:00,23.9,21.7,30.19,SSE,155,0.0,0.0,91,0.00,,---,0.00,VWS V14.00,2014-12-20 04:19:00,
2014-12-19 22:24:00,23.7,21.5,30.19,SSE,155,0.0,0.0,91,0.00,,---,0.00,VWS V14.00,2014-12-20 04:24:00,
2014-12-19 22:29:00,23.5,21.5,30.19,SSE,155,0.0,0.0,92,0.00,,---,0.00,VWS V14.00,2014-12-20 04:29:00,
2014-12-19 22:34:00,23.2,21.0,30.19,SSE,155,0.0,0.0,91,0.00,,---,0.00,VWS V14.00,2014-12-20 04:34:00,
2014-12-19 22:39:00,23.1,21.1,30.19,SSE,155,0.0,0.0,92,0.00,,---,0.00,VWS V14.00,2014-12-20 04:39:00,
2014-12-19 22:44:00,23.0,21.0,30.19,SSE,155,0.0,0.0,92,0.00,,---,0.00,VWS V14.00,2014-12-20 04:44:00,
2014-12-19 22:49:00,22.9,20.9,30.19,SSE,155,0.0,0.0,92,0.00,,---,0.00,VWS V14.00,2014-12-20 04:49:00,
2014-12-19 22:54:00,22.9,20.9,30.19,SSE,155,0.0,0.0,92,0.00,,---,0.00,VWS V14.00,2014-12-20 04:54:00,
2014-12-19 22:59:00,22.9,20.9,30.19,SSE,155,0.0,0.0,92,0.00,,---,0.00,VWS V14.00,2014-12-20 04:59:00,
2014-12-19 23:04:00,23.0,21.0,30.19,SSE,155,0.0,0.0,92,0.00,,---,0.00,VWS V14.00,2014-12-20 05:04:00,
2014-12-19 23:09:00,23.0,21.0,30.19,SSE,155,0.0,0.0,92,0.00,,---,0.00,VWS V14.00,2014-12-20 05:09:00,
2014-12-19 23:14:00,22.9,20.9,30.19,SSE,155,0.0,0.0,92,0.00,,---,0.00,VWS V14.00,2014-12-20 05:14:00,
2014-12-19 23:19:00,22.8,20.8,30.20,SSE,155,0.0,0.0,92,0.00,,---,0.00,VWS V14.00,2014-12-20 05:19:00,
2014-12-19 23:24:00,22.7,20.7,30.19,SSE,155,0.0,0.0,92,0.00,,---,0.00,VWS V14.00,2014-12-20 05:24:00,
2014-12-19 23:29:00,22.7,20.7,30.20,SSE,155,0.0,0.0,92,0.00,,---,0.00,VWS V14.00,2014-12-20 05:29:00,